Spokane Felts, WA
on Saturday, December 29, 2012

Saturday
Previous Day Next Day
Daily Summary
 ActualAverageRecord
Temperature
Mean Temperature °F 29°F  
Max Temperature 29°F 35°F 69°F (1996)
Min Temperature 24°F 23°F 15°F (1996)
Degree Days
Heating Degree Days 38 36  
Month to date heating degree days 816 1023  
Since 1 July heating degree days 2089 2597  
Cooling Degree Days 0 0  
Month to date cooling degree days 0 0  
Year to date cooling degree days 509 406  
Moisture
Dew Point 22°F   
Average Humidity 84    
Maximum Humidity 92    
Minimum Humidity 75    
Precipitation
Precipitation T in 0.07 in 0.74 in (2010)
Month to date precipitation 1.75 2.42  
Year to date precipitation 20.51 17.64  
Wind
Wind Speed 2 mph   
Max Wind Speed 12 mph   
Max Gust Speed 14 mph   
Visibility 7 miles   
Events Snow   

Key: T is trace of precipitation, MM is missing value
Source: NWS Daily Summary
Time(PST)TemperatureDew PointHumidity Pressure Visibility Wind DirectionWind SpeedGust SpeedPrecipitationEvents Conditions
12:53 AM 28.0°F 24.1°F 85% 30.24 in 8.0 miles Calm Calm - N/A   Clear
1:53 AM 28.0°F 24.1°F 85% 30.23 in 8.0 miles Calm Calm - N/A   Clear
2:44 AM 26.6°F 24.8°F 93% 30.18 in 7.0 miles Calm Calm - N/A   Mostly Cloudy
2:53 AM 27.0°F 24.1°F 89% 30.23 in 7.0 miles Calm Calm - N/A   Overcast
3:53 AM 28.4°F 24.8°F 86% 30.17 in 6.0 miles Calm Calm - N/A   Overcast
4:53 AM 28.9°F 26.1°F 89% 30.22 in 5.0 miles SSE 3.5 mph - N/A   Overcast
5:39 AM 28.4°F 24.8°F 86% 30.17 in 4.0 miles Calm Calm - N/A   Overcast
5:53 AM 28.0°F 25.0°F 88% 30.23 in 5.0 miles SE 3.5 mph - N/A   Overcast
6:53 AM 26.1°F 23.0°F 88% 30.23 in 4.0 miles WSW 4.6 mph - N/A   Overcast
7:53 AM 26.1°F 21.9°F 84% 30.23 in 3.0 miles WSW 6.9 mph - N/A   Overcast
8:53 AM 26.1°F 21.0°F 81% 30.24 in 10.0 miles SW 8.1 mph - N/A   Overcast
9:53 AM 26.1°F 19.9°F 78% 30.24 in 10.0 miles SW 9.2 mph - N/A   Overcast
10:53 AM 25.0°F 21.0°F 85% 30.24 in 10.0 miles SW 8.1 mph - N/A   Overcast
11:53 AM 26.1°F 21.0°F 81% 30.22 in 10.0 miles WSW 9.2 mph - N/A   Overcast
12:53 PM 26.1°F 21.0°F 81% 30.21 in 10.0 miles SW 4.6 mph - N/A   Overcast
1:53 PM 27.0°F 21.9°F 81% 30.19 in 10.0 miles Calm Calm - N/A   Overcast
2:36 PM 26.6°F 21.2°F 80% 30.13 in 2.5 miles Calm Calm - 0.00 in Snow Light Snow
2:43 PM 26.6°F 21.2°F 80% 30.13 in 2.5 miles Calm Calm - 0.00 in Snow Light Snow
2:53 PM 27.0°F 21.9°F 81% 30.19 in 2.5 miles Calm Calm - 0.00 in Snow Light Snow
3:01 PM 26.6°F 21.2°F 80% 30.12 in 3.0 miles Calm Calm - 0.00 in Snow Light Snow
3:50 PM 26.6°F 21.2°F 80% 30.12 in 3.0 miles Calm Calm - 0.00 in Snow Light Snow
3:53 PM 27.0°F 21.9°F 81% 30.19 in 3.0 miles Calm Calm - 0.00 in Snow Light Snow
4:00 PM 26.6°F 21.2°F 80% 30.12 in 2.5 miles Calm Calm - 0.00 in Snow Light Snow
4:07 PM 26.6°F 21.2°F 80% 30.12 in 3.0 miles Calm Calm - 0.00 in Snow Light Snow
4:53 PM 27.0°F 21.9°F 81% 30.18 in 4.0 miles Calm Calm - 0.00 in Snow Light Snow
5:53 PM 27.0°F 21.9°F 81% 30.18 in 5.0 miles Calm Calm - 0.00 in Snow Light Snow
6:00 PM 26.6°F 21.2°F 80% 30.12 in 5.0 miles Calm Calm - 0.00 in Snow Light Snow
6:53 PM 26.1°F 21.0°F 81% 30.20 in 10.0 miles Calm Calm - 0.00 in   Overcast
7:31 PM 24.8°F 21.2°F 86% 30.13 in 10.0 miles Calm Calm - N/A   Overcast
7:49 PM 24.8°F 19.4°F 80% 30.14 in 9.0 miles Calm Calm - N/A   Overcast
7:53 PM 24.1°F 19.9°F 84% 30.21 in 10.0 miles Calm Calm - N/A   Overcast
8:53 PM 25.0°F 19.9°F 81% 30.21 in 9.0 miles Calm Calm - N/A   Overcast
9:53 PM 25.0°F 21.0°F 85% 30.23 in 9.0 miles Calm Calm - N/A   Overcast
10:02 PM 24.8°F 21.2°F 86% 30.16 in 9.0 miles Calm Calm - N/A   Overcast
10:53 PM 24.1°F 19.9°F 84% 30.24 in 9.0 miles Calm Calm - N/A   Overcast
11:53 PM 25.0°F 21.0°F 85% 30.25 in 8.0 miles Calm Calm - N/A   Overcast
Moon Phase
Dec. 29 Jan. 04 Jan. 11 Jan. 18 Jan. 26
Sunrise:07:37 AM (PST) Moon Rise:05:51 PM (PST)12/29
Sunset:04:05 PM (PST) Moon Set:08:07 AM (PST)12/29

Copyright © 2014 The Weather Underground, Inc.